Location: ?????????
(44.2517°N, 135.2292°E)
Time: 15:11:44
(UTC+00:00)

Meteor 2-6 Rocket - Pass Details

Date: 04 August 2025
Orbit: 806 x 911 km, 81.3° (Epoch: 15 December)

Event Time Altitude Azimuth Distance (km) Brightness Sun altitude
Rises 12:59:28 0° 355° (N) 3,547 8.5 -22.3°
Reaches altitude 10° 13:02:06 10° 2° (N) 2,607 7.5 -22.5°
Maximum altitude 13:07:44 42° 73° (ENE) 1,271 5.0 -23.1°
Enters shadow 13:08:57 38° 102° (ESE) 1,360 4.9 -23.2°
